Date,TemperatureHighF,TemperatureAvgF,TemperatureLowF,DewpointHighF,DewpointAvgF,DewpointLowF,HumidityHigh,HumidityAvg,HumidityLow,PressureMaxIn,PressureMinIn,WindSpeedMaxMPH,WindSpeedAvgMPH,GustSpeedMaxMPH,PrecipitationSumIn
2013-10-3,50.0,45.5,36.0,38.0,35.7,32.0,95,70,53,0.00,40.00,15,10,40,0.32
2013-10-4,36.0,31.8,29.0,34.0,30.7,28.0,99,96,86,0.00,40.00,12,6,30,0.23
2013-10-5,40.0,32.2,27.0,30.0,26.8,23.0,94,80,61,0.00,40.00,12,8,32,0.43
2013-10-6,58.0,44.0,32.0,36.0,32.3,28.0,87,66,42,0.00,40.00,8,4,16,0.47
2013-10-7,69.0,53.9,41.0,40.0,35.2,32.0,75,52,26,0.00,40.00,8,3,14,0.03
2013-10-8,70.0,57.2,51.0,42.0,34.0,31.0,51,42,27,0.00,40.00,6,4,14,0.00
2013-10-9,59.0,50.8,45.0,35.0,30.9,27.0,65,48,30,0.00,40.00,8,4,22,0.00
2013-10-17,43.0,36.7,31.0,31.0,23.6,17.0,85,60,41,0.00,40.00,8,5,19,0.00
2013-10-18,40.0,34.3,28.0,29.0,24.8,22.0,94,69,53,0.00,40.00,11,6,22,0.00
2013-10-19,60.0,46.2,33.0,30.0,26.3,24.0,68,48,29,0.00,40.00,10,5,23,0.00
2013-10-20,49.0,43.0,37.0,36.0,31.8,27.0,82,65,45,0.00,40.00,10,6,26,0.00
2013-10-21,52.0,42.6,34.0,37.0,34.3,31.0,90,74,49,0.00,40.00,14,6,28,0.00
2013-10-22,58.0,46.3,41.0,38.0,36.6,35.0,89,70,46,0.00,40.00,7,4,18,0.00
2013-10-23,59.0,44.5,39.0,39.0,37.2,35.0,94,78,40,0.00,40.00,7,3,17,0.00
2013-10-24,52.0,41.5,36.0,36.0,34.7,34.0,93,78,51,0.00,40.00,6,4,11,0.00
2013-10-25,67.0,49.7,38.0,39.0,35.8,32.0,85,61,31,0.00,40.00,7,4,13,0.00
2013-10-26,63.0,49.6,36.0,32.0,29.9,26.0,68,48,29,0.00,40.00,7,3,15,0.00
2013-10-27,68.0,49.5,37.0,35.0,30.8,27.0,80,52,22,0.00,40.00,18,6,44,0.00
2013-10-28,35.0,25.9,24.0,30.0,22.7,-99.9,95,91,81,0.00,40.00,16,11,44,0.00
2013-10-29,30.0,26.5,23.0,28.0,25.0,22.0,96,94,90,0.00,40.00,9,4,21,0.00
2013-10-30,48.0,36.9,29.0,39.0,31.6,27.0,97,82,60,0.00,40.00,6,4,16,0.12
2013-10-31,50.0,41.7,34.0,35.0,29.3,26.0,81,62,44,0.00,40.00,11,7,31,0.12